カタログに戻る

COSMOS 886 DEB

運用中LEO
NORAD 9826·DEBRIS·🇷🇺 Russia

打ち上げ Dec 27, 1976 から Baikonur Cosmodrome

Loading…

次のパス (今後24時間)

TLE

最新Source: Space-Track

元期: Sep 14, 2026, 10:25 UTC

1 09826U 76126AN  26257.43424893  .00001672  00000-0  48687-3 0  9998
2 09826  65.8392  58.8751 0741643 250.3709 101.5886 13.48634106374419

AllMySatでCOSMOS 886 DEBをリアルタイム追跡

Download on the App Store